Simultaneous Nadir Overpasses (SNOs) Predictions

Prediction of SNOs between METOP-B and NOAA-19 Satellite Orbit:

Table of predicted SNOs for the next 14.0 days since TLE Epoch: 7/17/2015
Index Date (METOP-B) Time (METOP-B) Lat,Lon (METOP-B) SZA (METOP-B ) Date (NOAA-19) Time (NOAA-19) Lat,Lon (NOAA-19) SZA (NOAA-19 ) Distance(km) Time Diff (sec)
1 07/23/2015 16:14:58 75.32, -65.27 55.22 07/23/2015 16:13:47 75.32, -66.80 55.26 43.28 71
2 07/23/2015 17:05:45 -75.07, 101.34 125.01 07/23/2015 17:04:43 -75.06, 101.24 125.01 3.35 62
3 07/23/2015 17:56:26 75.01, -91.51 54.94 07/23/2015 17:55:43 75.01, -91.37 54.95 3.94 43
4 07/23/2015 18:47:08 -75.00, 75.81 125.06 07/23/2015 18:46:45 -75.03, 75.81 125.03 2.84 23
5 07/23/2015 19:37:48 74.99,-116.90 54.94 07/23/2015 19:37:45 74.98,-116.80 54.93 3.17 3
6
